Content
SEND FEEDBACK

Daily
Averages
Monthly
Summary
United States of America

CHELSEA, MICHIGAN


Home > North America > United States > Michigan
Elevation: 900 feet     Latitude: 42 19N     Longitude: 084 01W

WEATHER
 
SELECT A DAY
Number of Records: 206,924;   Date Range: 1/1/95 - 10/18/14
 
SHARE

PRINT THIS DATA

[ ← Previous Day ]
WEATHER ALMANAC - JANUARY 29, 2013
[ Next Day → ]
[ °C ]   °F
Weather ElementAverageHighLow
Temperature48.9 °F57.2 °F (10:43 pm)35.6 °F (12:14 am)
Dewpoint47.6 °F54 °F (1:53 pm)35.1 °F (12:53 am)
Humidity95.6 %100 % (12:14 am)87 % (9:53 pm)
Barometer29.76 in30.01 in (12:14 am)29.47 in (11:53 pm)
Wind Speed8.9 mph25.3 mph (7:24 pm)
Wind Gust89.8 mph (7:24 pm)
Weather ElementAverage
Visibility2.9 mi
Wind DirectionSSE (158.6 °)

Weather ElementTotal
Precipitation1.41 in
Heating Degree Days18.6 (Base 65)
Averaged from 63 records on January 29, 2013
WEATHER CONDITIONS BREAKOUT
WIND DIRECTION BREAKOUT
WEATHER BY HOUR - JANUARY 29, 2013
[ °C ]   °F
Local TimeTemperatureDewpointHumidityBarometerVisibilityWind DirectionWind SpeedGust SpeedPrecipitationEventsConditions
12:14 AM35.6 °F35.6 °F100 %30.01 in1.5 miCalmOvercast
12:53 AM36.0 °F35.1 °F97 %30.01 in1.5 miCalmOvercast
1:01 AM35.6 °F35.6 °F100 %29.98 in1.2 miCalmOvercast
1:39 AM35.6 °F35.6 °F100 %29.98 in0.8 miCalmOvercast
1:53 AM36.0 °F35.1 °F97 %29.99 in0.8 miESE (110°)3.5 mphOvercast
2:00 AM35.6 °F35.6 °F100 %29.96 in1.0 miESE (110°)3.5 mphOvercast
2:08 AM35.6 °F35.6 °F100 %29.96 in0.8 miESE (120°)3.5 mphMist
2:53 AM36.0 °F35.1 °F97 %29.98 in0.5 miSE (130°)4.6 mphFogFog
3:53 AM36.0 °F35.1 °F97 %29.96 in0.5 miEast (100°)3.5 mphFogFog
4:53 AM36.0 °F36.0 °F100 %29.95 in1.2 miSSE (160°)4.6 mph0.03 inRainRain
5:03 AM35.6 °F35.6 °F100 %29.88 in1.8 miESE (120°)9.2 mph0.02 inRainLight Rain
5:16 AM35.6 °F35.6 °F100 %29.87 in3.0 miSSE (150°)15.0 mph24.2 mph0.03 inRainLight Rain
5:53 AM37.0 °F36.0 °F96 %29.89 in7.0 miESE (120°)4.6 mph0.05 inOvercast
6:20 AM37.4 °F35.6 °F93 %29.85 in2.0 miCalmOvercast
6:33 AM37.4 °F35.6 °F93 %29.84 in1.5 miEast (90°)3.5 mphOvercast
6:41 AM37.4 °F35.6 °F93 %29.83 in1.2 miESE (110°)8.1 mphOvercast
7:36 AM37.4 °F37.4 °F100 %29.83 in0.8 miVariable3.5 mphMist
7:53 AM37.9 °F37.9 °F100 %29.83 in0.8 miCalmMist
8:53 AM39.9 °F39.0 °F97 %29.84 in0.2 miCalm0.02 inFogFog
9:53 AM43.0 °F43.0 °F100 %29.82 in0.2 miSSW (200°)4.6 mphFogFog
10:53 AM48.0 °F46.9 °F96 %29.81 in0.2 miSSW (210°)9.2 mph0.00 inFog-RainLight Rain
11:48 AM51.8 °F51.8 °F100 %29.79 in1.2 miSW (220°)12.7 mph18.4 mph0.07 inRain-ThunderstormLight Rain
11:53 AM53.1 °F52.0 °F96 %29.80 in1.5 miSW (220°)12.7 mph23.0 mph0.07 inRain-ThunderstormLight Rain
12:03 PM53.6 °F51.8 °F94 %29.78 in1.2 miSSW (210°)10.4 mph19.6 mph0.01 inRainRain
12:14 PM53.6 °F51.8 °F94 %29.75 in1.8 miSSW (210°)8.1 mph0.04 inRainRain
12:20 PM53.6 °F51.8 °F94 %29.75 in2.0 miSouth (190°)11.5 mph0.05 inRainLight Rain
12:35 PM53.6 °F51.8 °F94 %29.75 in3.0 miSSW (210°)12.7 mph0.05 inOvercast
12:50 PM53.6 °F51.8 °F94 %29.76 in2.5 miSSW (210°)11.5 mph0.05 inOvercast
12:53 PM53.1 °F53.1 °F100 %29.77 in2.0 miSW (220°)10.4 mph0.05 inOvercast
1:31 PM53.6 °F53.6 °F100 %29.75 in2.0 miSSW (210°)12.7 mph0.00 inOvercast
1:43 PM53.6 °F53.6 °F100 %29.74 in1.5 miSW (220°)12.7 mph20.7 mph0.00 inOvercast
1:53 PM54.0 °F54.0 °F100 %29.75 in1.2 miSW (220°)12.7 mph0.00 inOvercast
2:15 PM55.4 °F53.6 °F94 %29.72 in1.8 miSW (220°)11.5 mph19.6 mphOvercast
2:29 PM55.4 °F53.6 °F94 %29.72 in2.0 miSW (220°)11.5 mphOvercast
2:53 PM55.9 °F54.0 °F93 %29.73 in2.5 miSSW (210°)11.5 mph20.7 mphOvercast
3:14 PM53.6 °F53.6 °F100 %29.72 in1.5 miSSW (200°)10.4 mphOvercast
3:26 PM53.6 °F53.6 °F100 %29.72 in1.2 miSSW (200°)10.4 mphOvercast
3:51 PM53.6 °F53.6 °F100 %29.72 in1.5 miSSW (200°)9.2 mph0.02 inRainLight Rain
3:53 PM54.0 °F53.1 °F97 %29.73 in1.5 miSSW (200°)9.2 mph0.02 inRainLight Rain
4:03 PM53.6 °F51.8 °F94 %29.71 in1.2 miSouth (190°)8.1 mph0.01 inRain-ThunderstormRain
4:24 PM53.6 °F51.8 °F94 %29.71 in2.0 miSSW (200°)8.1 mph0.07 inRain-ThunderstormThunderstorms and Rain
4:36 PM53.6 °F51.8 °F94 %29.71 in2.5 miSSW (200°)9.2 mph0.09 inRainLight Rain
4:53 PM54.0 °F53.1 °F97 %29.72 in2.0 miSSW (210°)6.9 mph0.10 inRainLight Rain
5:25 PM53.6 °F53.6 °F100 %29.70 in3.0 miSouth (190°)9.2 mph0.01 inRainLight Rain
5:53 PM55.0 °F53.1 °F93 %29.70 in3.0 miSouth (190°)11.5 mph0.02 inRainLight Rain
6:10 PM55.4 °F53.6 °F94 %29.69 in4.0 miSSW (200°)12.7 mph0.00 inOvercast
6:53 PM55.0 °F53.1 °F93 %29.69 in4.0 miSSW (210°)12.7 mph20.7 mph0.04 inRainRain
7:00 PM55.4 °F53.6 °F94 %29.68 in3.0 miNorth0.01 inRainLight Rain
7:24 PM55.4 °F53.6 °F94 %29.68 in4.0 miSW (220°)25.3 mph89.8 mph0.06 inRainLight Rain
7:34 PM55.4 °F53.6 °F94 %29.66 in3.0 miSouth (190°)10.4 mph23.0 mph0.08 inRainLight Rain
7:39 PM55.4 °F53.6 °F94 %29.65 in2.5 miSouth (180°)9.2 mph0.09 inRainRain
7:51 PM55.4 °F53.6 °F94 %29.67 in3.0 miSSW (200°)10.4 mph0.12 inRainLight Rain
7:53 PM55.0 °F53.1 °F93 %29.68 in4.0 miSSW (210°)10.4 mph0.13 inRain-ThunderstormLight Rain
8:00 PM55.4 °F53.6 °F94 %29.66 in5.0 miSSW (200°)9.2 mph0.00 inRain-ThunderstormLight Rain
8:26 PM55.4 °F53.6 °F94 %29.64 in6.0 miSouth (190°)11.5 mph0.00 inOvercast
8:53 PM55.9 °F53.1 °F90 %29.62 in7.0 miSouth (190°)13.8 mph20.7 mph0.00 inOvercast
9:11 PM55.4 °F53.6 °F94 %29.61 in8.0 miSouth (190°)12.7 mph0.00 inOvercast
9:32 PM55.4 °F53.6 °F94 %29.59 in8.0 miSouth (190°)11.5 mph0.00 inOvercast
9:53 PM57.0 °F53.1 °F87 %29.57 in9.0 miSouth (190°)13.8 mph20.7 mph0.00 inOvercast
10:43 PM57.2 °F53.6 °F88 %29.53 in9.0 miSouth (190°)11.5 mphOvercast
10:53 PM57.0 °F53.1 °F87 %29.52 in9.0 miSouth (180°)12.7 mphOvercast
11:27 PM57.2 °F53.6 °F88 %29.50 in9.0 miSouth (170°)15.0 mph20.7 mphOvercast
11:53 PM57.0 °F53.1 °F87 %29.47 in10.0 miSouth (190°)12.7 mph20.7 mphOvercast
Hourly data recorded from KARB, located miles away from Chelsea, Michigan







STORIES FROM OUR PARTNERS